Location: East Irvine
(33.6759°N, 117.7598°W)
Time: 01:51:29
(UTC+00:00)

Cosmos 2251 Rocket - Pass Details

Date: 15 November 2025
Orbit: 760 x 788 km, 74.0° (Epoch: 07 December)

Event Time Altitude Azimuth Distance (km) Brightness Sun altitude
Rises 02:22:50 0° 205° (SSW) 3,217 7.2 -19.7°
Reaches altitude 10° 02:25:13 10° 208° (SSW) 2,299 6.5 -20.2°
Maximum altitude 02:30:22 61° 289° (WNW) 876 4.0 -21.3°
Drops below altitude 10° 02:35:36 10° 9° (N) 2,331 5.8 -22.4°
Enters shadow 02:35:48 - 10° (N) 2,405 5.9 -22.4°
